User: anonymous   Login
Location: Bushey
(51.6333°N, 0.3667°W)
Time: 10:48:32
(UTC+00:00)
Language:

Resurs 01 Rocket - Orbit

View from above orbital plane
View from above orbital plane
View from above satellite
View from above satellite

Ground track
Ground track

The orbit data is extracted from the following two-line orbital elements,

1 23343U 94074B   21133.38952703  .00000036  00000-0  12351-4 0  9991
2 23343  97.9490 188.5529 0007361 156.9733 213.5483 14.76878647427113
Epoch (UTC): 13 May 2021 09:20:55
Eccentricity: 0.0007361
inclination: 97.9490°
perigee height: 634 km
apogee height: 644 km
right ascension of ascending node: 188.5529°
argument of perigee: 156.9733°
revolutions per day: 14.76878647
mean anomaly at epoch: 213.5483°
orbit number at epoch: 42711

The dashed part of the orbit path shows where the satellite is in the earth's shadow,  

DLR